www.pogodaiklimat.ru

Погода и климат >> Архив погоды >> Оман >> Qarn Alam


ПОГОДА в Qarn Alam

  • Прогноз погоды в Qarn Alam
  • Монитор погоды в Qarn Alam
  • Климат города

АРХИВ ПОГОДЫ в Qarn Alam

Время (UTC), дата Ветер
(напр.,м/с)
 
Видим.   Явления Облачность Т
(С)
Тd
(С)
f
(%)
Тe
(С)
Тes
(С)
Комфортность P
(гПа)
Po
(гПа)
Тmin
(С)
Tmax
(С)
R
(мм)
R24
(мм)
S
(см)
18 11.10 В 4 н/о н/о +26.9 +17.7 57 +31 +31 душно 1012.3 995.8 +38.1
21 11.10 СВ 3 н/о н/о +22.6 +16.4 68 +27 +27 душно 1011.7 995.0
00 12.10 СВ 4 н/о н/о +20.1 +14.1 68 +22 +22 комфорт 1011.1 994.2
03 12.10 СВ 3 н/о н/о +19.5 +10.2 55 +21 +21 комфорт 1013.0 996.0
06 12.10 В 7 н/о н/о +31.5 +8.4 24 +30 +30 жарко 1013.6 997.3 +18.6
09 12.10 ЮВ 9 н/о н/о +36.2 -0.5 10 +32 +32 жарко 1010.3 994.2
12 12.10 ЮВ 9 н/о н/о +35.9 -2.1 9 +32 +32 жарко 1009.3 993.3
15 12.10 ЮВ 7 н/о н/о +30.6 +1.1 15 +28 +28 жарко 1011.0 994.7
18 12.10 ЮВ 4 н/о н/о +26.5 +3.7 23 +25 +25 комфорт 1013.0 996.4 +37.0
21 12.10 В 4 н/о н/о +25.6 +8.6 34 +31 +31 очень
душно
1012.8 996.2
00 13.10 СВ 3 н/о н/о +22.2 +12.3 53 +25 +25 комфорт 1013.1 996.3
03 13.10 В 4 н/о н/о +21.8 +11.2 51 +24 +24 комфорт 1014.7 997.8
06 13.10 ЮВ 7 н/о н/о +29.5 +21.1 61 +37 +37 очень
душно
1015.6 999.2 +20.7
09 13.10 В 6 н/о н/о +31.9 +20.0 49 +38 +38 очень
душно
1013.2 996.9
12 13.10 ЮВ 7 н/о н/о +33.8 +16.8 36 +37 +37 очень
душно
1011.5 995.4
15 13.10 ЮВ 8 н/о н/о +29.7 +20.5 58 +37 +37 очень
душно
1013.3 997.0
18 13.10 Ю 7 н/о н/о +27.5 +21.4 69 +35 +35 очень
душно
1014.6 998.1 +34.1
21 13.10 ЮВ 3 н/о н/о +26.3 +23.2 83 +35 +35 очень
душно
1014.9 998.3
00 14.10 В 2 н/о н/о +26.0 +22.8 83 +35 +35 очень
душно
1015.0 998.4
03 14.10 В 4 н/о н/о +24.8 +22.5 87 +32 +32 очень
душно
1016.3 999.6
06 14.10 В 5 н/о н/о +27.0 +23.5 81 +37 +37 очень
душно
1017.6 1001.1 +24.7
09 14.10 Ю 4 н/о н/о +29.1 +20.6 60 +36 +36 очень
душно
1016.0 999.5
12 14.10 Ю 2 н/о н/о +30.2 +19.3 52 +36 +36 очень
душно
1014.5 998.1
15 14.10 Ю 1 н/о н/о +25.9 +22.7 83 +34 +34 очень
душно
1015.1 998.6
18 14.10 Ю 1 н/о н/о +25.4 +22.4 83 +33 +33 очень
душно
1016.2 999.5 +30.3
21 14.10 З 2 н/о н/о +24.5 +22.6 89 +32 +32 очень
душно
1015.4 998.7
00 15.10 СЗ 2 н/о н/о +23.3 +22.2 94 +32 +32 очень
душно
1014.9 998.2 1
03 15.10 З 2 н/о н/о +23.1 +22.6 97 +32 +32 очень
душно
1016.6 999.8
06 15.10 З 3 н/о н/о +28.5 +21.6 66 +36 +36 очень
душно
1017.4 1000.9 +22.7
09 15.10 С 2 н/о н/о +32.4 +17.6 41 +36 +36 очень
душно
1014.5 998.2
12 15.10 ЮЗ 1 н/о н/о +34.1 +15.5 33 +36 +36 душно 1012.6 996.5
18 15.10 З 3 н/о н/о +28.6 +16.2 47 +32 +32 душно 1015.2 998.7 +35.3
21 15.10 ЮЗ 5 н/о н/о +26.5 +18.8 63 +32 +32 очень
душно
1015.1 998.5
00 16.10 ЮЗ 5 н/о н/о +25.1 +19.5 71 +30 +30 душно 1014.6 998.0
03 16.10 З 3 н/о н/о +24.2 +19.2 74 +29 +29 душно 1016.0 999.3
06 16.10 З 4 н/о н/о +31.6 +16.7 41 1016.3 998.7 +24.0
09 16.10 ЮЗ 2 н/о н/о +35.6 +13.4 26 +36 +36 очень
жарко
1013.3 997.2
12 16.10 СЗ 1 н/о н/о +36.5 +12.0 23 +36 +36 очень
жарко
1011.7 995.6
15 16.10 З 3 н/о н/о +33.5 +12.7 28 +34 +34 очень
жарко
1012.7 996.5
18 16.10 Ю 5 н/о н/о +30.6 +12.5 33 +31 +31 жарко 1014.6 998.2 +37.1
21 16.10 ЮЗ 3 н/о н/о +26.9 +14.6 47 +29 +29 жарко 1013.9 997.4
00 17.10 ЮЗ 4 н/о н/о +25.7 +16.7 58 +29 +29 душно 1014.0 997.4
03 17.10 ЮЗ 5 н/о н/о +25.8 +17.0 58 +30 +30 душно 1015.3 998.7
06 17.10 З 7 н/о н/о +31.1 +15.3 38 +33 +33 душно 1015.6 999.2 +24.8
09 17.10 З 3 н/о н/о +34.1 +14.3 30 +35 +35 очень
жарко
1012.8 996.6
12 17.10 З 3 н/о н/о +34.8 +13.2 27 +35 +35 очень
жарко
1010.8 994.7
15 17.10 З 2 н/о н/о +32.6 +12.4 29 +33 +33 жарко 1011.4 995.2
18 17.10 ЮЗ 2 н/о н/о +30.3 +12.8 34 +31 +31 жарко 1012.6 996.3 +35.5
21 17.10 ЮЗ 3 н/о н/о +28.3 +12.7 38 +30 +30 жарко 1012.9 996.5
00 18.10 Ю 3 н/о н/о +26.4 +15.9 52 +30 +30 душно 1013.0 996.5
03 18.10 ЮЗ 4 н/о н/о +25.9 +17.5 60 +30 +30 душно 1014.0 997.4
06 18.10 З 5 н/о н/о +32.1 +14.3 34 +34 +34 душно 1014.7 998.4 +25.5
09 18.10 ЮЗ 4 н/о н/о +35.3 +12.5 25 +35 +35 очень
жарко
1011.6 995.5
12 18.10 З 2 н/о н/о +36.1 +11.8 23 +36 +36 очень
жарко
1009.2 993.2

 

Местоположение метеостанции Qarn Alam (Оман): широта 21.37 долгота 57.05 высота над уровнем моря 139 м.

В архиве по умолчанию представлена погода в Qarn Alam за последнюю неделю. Архивные данные за месяц целиком и за предыдущие месяцы, начиная с января 2011 года, Вы можете получить, выбрав интересующий диапазон дат из раскрывающегося списка и нажав кнопку "Ввод!".


*Определитесь, кто Вы:
робот инопланетянин человек

Внимание! Время в таблицах - всемирное. Для получения местного времени необходимо прибавить поправку, которая в Qarn Alam равна 4 ч.

Смотрите также архив погоды в соседних городах и на ближайших метеорологических станциях:

Погода в Umzamaim (Оман) (64 км)
Погода в Fahud (Оман) (122 км)
Погода в Adam (Оман) (122 км)
Погода в Joba (Оман) (137 км)
Погода в Yaaloni (Оман) (159 км)
Погода в Al Mudhaibi (Оман) (169 км)
Погода в Nizwa (Оман) (172 км)
Погода в Bahla (Оман) (181 км)
Погода в Saiq (Оман) (198 км)
Погода в Duqm (Оман) (204 км)

Пояснения к столбцам:

Ветер - указаны скорость ветра в м/с - средняя за 10 мин, порывы в срок и между сроками (в фигурных скобках) и направление, откуда дует ветер: С - северный, СВ - северо-восточный, В - восточный, ЮВ - юго-восточный, Ю - южный, ЮЗ - юго-западный, З - западный, СЗ - северо-западный.
Видимость - горизонтальная дальность видимости в метрах или километрах. При видимости от 1 до 10 км при отсутствии осадков обычно наблюдается дымка, при ухудшении видимости до 1 км и менее - туман. В сухую погоду видимость может ухудшаться дымом, пылью или мглою.
Явления - указаны атмосферные явления, наблюдавшиеся в срок или в последний час перед сроком; фигурными скобками обозначены явления, наблюдавшиеся между сроками (за 1-3 часа до срока); квадратными скобками обозначены град или гололедные отложения с указанием их диаметра в мм.
Облачность - указаны через наклонную черту общая и нижняя облачность в баллах и высота нижней границы облаков в метрах; квадратными скобками обозначены формы облаков: Ci - перистые, Cs - перисто-слоистые, Cc - перисто-кучевые, Ac - высококучевые, As - высокослоистые, Sc - слоисто-кучевые, Ns - слоисто-дождевые, Cu - кучевые, Cb - кучево-дождевые. Подробнее классификацию облаков см. в Атласе облаков (PDF).
T - Температура воздуха - температура, измеренная на высоте 2 м над землей.
Td - Температура точки росы - температура, при понижении до которой содержащийся в воздухе водяной пар достигнет насыщения.
f - Относительная влажность воздуха - влажноcть воздуха, измеренная на высоте 2 м над землей.
Te - Эффективная температура - температура, которую ощущает одетый по сезону человек в тени. Характеристика душности погоды. При расчете учитывается влияние влажности воздуха и скорости ветра на теплоощущения человека.
Tes - Эффективная температура на солнце - температура, которую ощущает человек, с поправкой на солнечный нагрев. Характеристика знойности погоды. Зависит от высоты солнца над горизонтом, облачности и скорости ветра. Ночью, в пасмурную погоду, а также при ветре 12 м/с и более поправка равна нулю.
P - Атмосферное давление - приведенное к уровню моря атмосферное давление.
Po - Атмосферное давление - измеренное на уровне метеостанции атмосферное давление.
Tmin - Минимальная температура - минимум температуры воздуха на высоте 2 м над землей.
Tmax - Максимальная температура - максимум температуры воздуха на высоте 2 м над землей.
R - Количество осадков - Количество выпавших осадков за период времени, мм. При наведении курсора мыши на число - период времени, за который выпало указанное количество осадков.
R24 - Количество осадков - Количество выпавших осадков за 24 часа, мм.
S - Снежный покров - Высота снежного покрова, см. При наведении курсора мыши на число - состояние снежного покрова и степень покрытия местности в баллах.